| time (UTC) | temp C | wind direction | speed KPH | gust KPH | rain 1hr cm | rain 24hr cm | rain mn cm | humidity % | barometer mb |
| 20260509024653 | 19 | 49 | 14.5 | 25.7 | 0.00 | 0.00 | 0.00 | 44 | 1029.9 |
| 20260509024149 | 18 | 44 | 16.1 | 27.4 | 0.00 | 0.00 | 0.00 | 45 | 1029.9 |
| 20260509023647 | 18 | 57 | 24.1 | 27.4 | 0.00 | 0.00 | 0.00 | 45 | 1030.0 |
| 20260509023144 | 18 | 34 | 25.7 | 25.7 | 0.00 | 0.00 | 0.00 | 45 | 1030.0 |
| 20260509022640 | 18 | 50 | 17.7 | 24.1 | 0.00 | 0.00 | 0.00 | 46 | 1029.9 |
| 20260509022138 | 18 | 39 | 22.5 | 29.0 | 0.00 | 0.00 | 0.00 | 45 | 1030.2 |
| 20260509021634 | 18 | 66 | 17.7 | 24.1 | 0.00 | 0.00 | 0.00 | 46 | 1030.0 |
| 20260509021131 | 18 | 67 | 20.9 | 29.0 | 0.00 | 0.00 | 0.00 | 46 | 1030.0 |
| 20260509015828 | 17 | 49 | 11.3 | 30.6 | 0.00 | 0.00 | 0.00 | 48 | 1030.3 |
| 20260509015326 | 17 | 49 | 11.3 | 30.6 | 0.00 | 0.00 | 0.00 | 48 | 1030.3 |
| 20260509014822 | 17 | 51 | 16.1 | 27.4 | 0.00 | 0.00 | 0.00 | 49 | 1030.3 |
| 20260509014319 | 17 | 41 | 19.3 | 22.5 | 0.00 | 0.00 | 0.00 | 49 | 1030.2 |
| 20260509013816 | 17 | 50 | 20.9 | 35.4 | 0.00 | 0.00 | 0.00 | 49 | 1030.2 |
| 20260509013312 | 17 | 58 | 24.1 | 27.4 | 0.00 | 0.00 | 0.00 | 49 | 1030.4 |
| 20260509012808 | 17 | 34 | 16.1 | 29.0 | 0.00 | 0.00 | 0.00 | 50 | 1030.3 |
| 20260509012307 | 17 | 41 | 19.3 | 29.0 | 0.00 | 0.00 | 0.00 | 51 | 1030.2 |
| 20260509011802 | 16 | 41 | 16.1 | 29.0 | 0.00 | 0.00 | 0.00 | 51 | 1030.4 |
| 20260509011300 | 16 | 48 | 20.9 | 25.7 | 0.00 | 0.00 | 0.00 | 51 | 1030.5 |
| 20260509010757 | 16 | 54 | 24.1 | 32.2 | 0.00 | 0.00 | 0.00 | 51 | 1030.5 |
| 20260509010254 | 16 | 21 | 17.7 | 30.6 | 0.00 | 0.00 | 0.00 | 52 | 1030.5 |
| 20260509005752 | 16 | 57 | 19.3 | 25.7 | 0.00 | 0.00 | 0.00 | 52 | 1030.5 |
| 20260509005250 | 16 | 78 | 8.0 | 27.4 | 0.00 | 0.00 | 0.00 | 53 | 1030.5 |
| 20260509004749 | 16 | 64 | 11.3 | 29.0 | 0.00 | 0.00 | 0.00 | 53 | 1030.6 |
| 20260509004247 | 16 | 45 | 16.1 | 27.4 | 0.00 | 0.00 | 0.00 | 54 | 1030.4 |
| 20260509003745 | 15 | 32 | 8.0 | 24.1 | 0.00 | 0.00 | 0.00 | 54 | 1030.4 |
| 20260509003242 | 15 | 58 | 9.7 | 9.7 | 0.00 | 0.00 | 0.00 | 55 | 1030.4 |
| 20260509002739 | 15 | 86 | 8.0 | 16.1 | 0.00 | 0.00 | 0.00 | 56 | 1030.4 |
| 20260509002236 | 15 | 92 | 8.0 | 12.9 | 0.00 | 0.00 | 0.00 | 56 | 1030.3 |
| 20260509001734 | 15 | 81 | 4.8 | 12.9 | 0.00 | 0.00 | 0.00 | 57 | 1030.3 |
| 20260509001230 | 15 | 71 | 8.0 | 11.3 | 0.00 | 0.00 | 0.00 | 57 | 1030.4 |
| 20260509000728 | 14 | 74 | 9.7 | 9.7 | 0.00 | 0.00 | 0.00 | 57 | 1030.4 |
| 20260509000226 | 14 | 78 | 6.4 | 9.7 | 0.00 | 0.00 | 0.00 | 58 | 1030.3 |
| 20260508235722 | 13 | 28 | 6.4 | 8.0 | 0.00 | 0.00 | 0.00 | 59 | 1030.4 |
| 20260508235218 | 13 | 56 | 6.4 | 9.7 | 0.00 | 0.00 | 0.00 | 60 | 1030.2 |
| 20260508234716 | 13 | 77 | 8.0 | 11.3 | 0.00 | 0.00 | 0.00 | 60 | 1030.2 |
| 20260508234212 | 13 | 88 | 8.0 | 9.7 | 0.00 | 0.00 | 0.00 | 60 | 1030.2 |
| 20260508233711 | 13 | 70 | 4.8 | 8.0 | 0.00 | 0.00 | 0.00 | 61 | 1030.2 |
| 20260508233209 | 12 | 104 | 6.4 | 12.9 | 0.00 | 0.00 | 0.00 | 62 | 1030.2 |
| 20260508232706 | 12 | 91 | 12.9 | 12.9 | 0.00 | 0.00 | 0.00 | 63 | 1030.2 |
| 20260508232202 | 12 | 94 | 11.3 | 12.9 | 0.00 | 0.00 | 0.00 | 64 | 1030.1 |
| 20260508231700 | 11 | 92 | 6.4 | 9.7 | 0.00 | 0.00 | 0.00 | 65 | 1030.1 |
| 20260508231157 | 11 | 70 | 8.0 | 12.9 | 0.00 | 0.00 | 0.00 | 66 | 1030.2 |
| 20260508230654 | 11 | 94 | 6.4 | 9.7 | 0.00 | 0.00 | 0.00 | 66 | 1030.1 |
| 20260508230150 | 11 | 71 | 8.0 | 9.7 | 0.00 | 0.00 | 0.00 | 66 | 1030.0 |
| 20260508225648 | 11 | 95 | 6.4 | 9.7 | 0.00 | 0.00 | 0.00 | 67 | 1030.0 |
| 20260508225144 | 11 | 101 | 6.4 | 8.0 | 0.00 | 0.00 | 0.00 | 67 | 1029.9 |
| 20260508224642 | 11 | 82 | 6.4 | 11.3 | 0.00 | 0.00 | 0.00 | 67 | 1030.0 |
| 20260508224139 | 11 | 106 | 9.7 | 12.9 | 0.00 | 0.00 | 0.00 | 67 | 1029.9 |
| 20260508223637 | 11 | 98 | 12.9 | 12.9 | 0.00 | 0.00 | 0.00 | 67 | 1029.8 |
| 20260508223134 | 11 | 100 | 8.0 | 12.9 | 0.00 | 0.00 | 0.00 | 67 | 1029.9 |
| 20260508222631 | 11 | 104 | 11.3 | 12.9 | 0.00 | 0.00 | 0.00 | 67 | 1029.7 |
| 20260508222128 | 11 | 99 | 6.4 | 12.9 | 0.00 | 0.00 | 0.00 | 67 | 1029.8 |
| 20260508221624 | 11 | 97 | 8.0 | 12.9 | 0.00 | 0.00 | 0.00 | 67 | 1029.9 |
| 20260508221120 | 11 | 106 | 9.7 | 11.3 | 0.00 | 0.00 | 0.00 | 68 | 1029.6 |
| 20260508220617 | 11 | 101 | 8.0 | 12.9 | 0.00 | 0.00 | 0.00 | 67 | 1029.8 |
| 20260508220114 | 11 | 93 | 9.7 | 12.9 | 0.00 | 0.00 | 0.00 | 67 | 1029.7 |
| 20260508215610 | 11 | 102 | 8.0 | 14.5 | 0.00 | 0.00 | 0.00 | 67 | 1029.7 |
| 20260508215107 | 11 | 103 | 8.0 | 9.7 | 0.00 | 0.00 | 0.00 | 67 | 1029.7 |
| 20260508214604 | 11 | 106 | 6.4 | 9.7 | 0.00 | 0.00 | 0.00 | 67 | 1029.8 |
| 20260508214101 | 11 | 104 | 8.0 | 8.0 | 0.00 | 0.00 | 0.00 | 66 | 1029.7 |
| 20260508213558 | 11 | 116 | 6.4 | 8.0 | 0.00 | 0.00 | 0.00 | 66 | 1029.7 |
| 20260508213054 | 11 | 130 | 4.8 | 6.4 | 0.00 | 0.00 | 0.00 | 66 | 1029.5 |
| 20260508212550 | 11 | 110 | 4.8 | 6.4 | 0.00 | 0.00 | 0.00 | 65 | 1029.6 |
| 20260508212047 | 11 | 97 | 4.8 | 8.0 | 0.00 | 0.00 | 0.00 | 64 | 1029.7 |
| 20260508211542 | 11 | 102 | 6.4 | 11.3 | 0.00 | 0.00 | 0.00 | 64 | 1029.5 |
| 20260508211039 | 11 | 79 | 9.7 | 11.3 | 0.00 | 0.00 | 0.00 | 63 | 1029.6 |
| 20260508210535 | 12 | 84 | 8.0 | 9.7 | 0.00 | 0.00 | 0.00 | 63 | 1029.5 |
| 20260508210033 | 11 | 93 | 6.4 | 8.0 | 0.00 | 0.00 | 0.00 | 64 | 1029.5 |
| 20260508205530 | 11 | 106 | 6.4 | 6.4 | 0.00 | 0.00 | 0.00 | 64 | 1029.5 |
| 20260508205026 | 11 | 134 | 1.6 | 3.2 | 0.00 | 0.00 | 0.00 | 65 | 1029.4 |
| 20260508204523 | 11 | 147 | 0.0 | 4.8 | 0.00 | 0.00 | 0.00 | 64 | 1029.2 |
| 20260508204019 | 12 | 175 | 1.6 | 3.2 | 0.00 | 0.00 | 0.00 | 63 | 1029.3 |
| 20260508203515 | 12 | 111 | 4.8 | 6.4 | 0.00 | 0.00 | 0.00 | 61 | 1029.4 |
| 20260508203011 | 12 | 91 | 6.4 | 8.0 | 0.00 | 0.00 | 0.00 | 60 | 1029.2 |
| 20260508202508 | 12 | 89 | 4.8 | 6.4 | 0.00 | 0.00 | 0.00 | 59 | 1029.4 |
| 20260508202005 | 13 | 92 | 4.8 | 6.4 | 0.00 | 0.00 | 0.00 | 59 | 1029.2 |
| 20260508201501 | 13 | 91 | 4.8 | 8.0 | 0.00 | 0.00 | 0.00 | 59 | 1029.3 |
| 20260508200958 | 13 | 93 | 6.4 | 8.0 | 0.00 | 0.00 | 0.00 | 59 | 1029.2 |
| 20260508200456 | 13 | 95 | 4.8 | 8.0 | 0.00 | 0.00 | 0.00 | 59 | 1029.2 |
| 20260508195950 | 13 | 88 | 6.4 | 8.0 | 0.00 | 0.00 | 0.00 | 58 | 1029.1 |
| 20260508195448 | 13 | 95 | 6.4 | 8.0 | 0.00 | 0.00 | 0.00 | 57 | 1029.3 |
| 20260508194944 | 13 | 88 | 8.0 | 8.0 | 0.00 | 0.00 | 0.00 | 57 | 1029.1 |
| 20260508194441 | 13 | 97 | 3.2 | 9.7 | 0.00 | 0.00 | 0.00 | 56 | 1029.2 |
| 20260508193938 | 14 | 73 | 9.7 | 9.7 | 0.00 | 0.00 | 0.00 | 55 | 1028.9 |
| 20260508193435 | 14 | 53 | 8.0 | 14.5 | 0.00 | 0.00 | 0.00 | 54 | 1029.0 |
| 20260508192931 | 14 | 76 | 9.7 | 11.3 | 0.00 | 0.00 | 0.00 | 54 | 1029.0 |
| 20260508192428 | 14 | 77 | 14.5 | 16.1 | 0.00 | 0.00 | 0.00 | 54 | 1029.0 |
| 20260508191925 | 15 | 59 | 9.7 | 14.5 | 0.00 | 0.00 | 0.00 | 54 | 1028.9 |
| 20260508191422 | 15 | 88 | 8.0 | 16.1 | 0.00 | 0.00 | 0.00 | 54 | 1028.9 |
| 20260508190919 | 15 | 58 | 11.3 | 20.9 | 0.00 | 0.00 | 0.00 | 53 | 1029.0 |
| 20260508190416 | 15 | 52 | 9.7 | 17.7 | 0.00 | 0.00 | 0.00 | 53 | 1028.8 |
| 20260508185912 | 15 | 81 | 14.5 | 14.5 | 0.00 | 0.00 | 0.00 | 53 | 1029.0 |
| 20260508185410 | 15 | 75 | 8.0 | 17.7 | 0.00 | 0.00 | 0.00 | 53 | 1029.0 |
| 20260508184907 | 15 | 69 | 11.3 | 22.5 | 0.00 | 0.00 | 0.00 | 52 | 1028.9 |
| 20260508184404 | 15 | 83 | 12.9 | 17.7 | 0.00 | 0.00 | 0.00 | 53 | 1028.8 |
| 20260508183901 | 15 | 69 | 14.5 | 20.9 | 0.00 | 0.00 | 0.00 | 53 | 1028.8 |
| 20260508183358 | 15 | 79 | 12.9 | 20.9 | 0.00 | 0.00 | 0.00 | 53 | 1028.7 |
| 20260508182853 | 15 | 71 | 17.7 | 20.9 | 0.00 | 0.00 | 0.00 | 52 | 1028.9 |
| 20260508182350 | 15 | 77 | 16.1 | 20.9 | 0.00 | 0.00 | 0.00 | 52 | 1028.7 |
| 20260508181846 | 15 | 78 | 11.3 | 22.5 | 0.00 | 0.00 | 0.00 | 52 | 1028.8 |
| 20260508181343 | 15 | 94 | 25.7 | 27.4 | 0.00 | 0.00 | 0.00 | 52 | 1028.9 |
| 20260508180840 | 15 | 71 | 11.3 | 25.7 | 0.00 | 0.00 | 0.00 | 52 | 1028.8 |
| 20260508180337 | 15 | 74 | 17.7 | 24.1 | 0.00 | 0.00 | 0.00 | 51 | 1028.7 |
| 20260508175833 | 15 | 61 | 12.9 | 20.9 | 0.00 | 0.00 | 0.00 | 51 | 1029.0 |
| 20260508175329 | 15 | 96 | 9.7 | 24.1 | 0.00 | 0.00 | 0.00 | 51 | 1028.9 |
| 20260508174828 | 15 | 54 | 12.9 | 17.7 | 0.00 | 0.00 | 0.00 | 51 | 1028.9 |
| 20260508174325 | 15 | 75 | 16.1 | 17.7 | 0.00 | 0.00 | 0.00 | 51 | 1028.9 |
| 20260508173821 | 15 | 60 | 14.5 | 20.9 | 0.00 | 0.00 | 0.00 | 50 | 1028.9 |
| 20260508173318 | 16 | 72 | 14.5 | 20.9 | 0.00 | 0.00 | 0.00 | 50 | 1028.9 |
| 20260508172814 | 16 | 59 | 14.5 | 22.5 | 0.00 | 0.00 | 0.00 | 50 | 1028.9 |
| 20260508172311 | 15 | 65 | 14.5 | 19.3 | 0.00 | 0.00 | 0.00 | 50 | 1029.0 |
| 20260508171808 | 16 | 87 | 8.0 | 14.5 | 0.00 | 0.00 | 0.00 | 50 | 1028.9 |
| 20260508171304 | 16 | 59 | 8.0 | 20.9 | 0.00 | 0.00 | 0.00 | 50 | 1028.8 |
| 20260508170801 | 15 | 43 | 11.3 | 14.5 | 0.00 | 0.00 | 0.00 | 50 | 1028.8 |
| 20260508170259 | 15 | 46 | 4.8 | 12.9 | 0.00 | 0.00 | 0.00 | 51 | 1029.1 |
| 20260508165755 | 15 | 60 | 6.4 | 17.7 | 0.00 | 0.00 | 0.00 | 50 | 1028.9 |
| 20260508165253 | 15 | 71 | 11.3 | 14.5 | 0.00 | 0.00 | 0.00 | 50 | 1028.9 |
| 20260508164748 | 15 | 55 | 11.3 | 12.9 | 0.00 | 0.00 | 0.00 | 50 | 1029.0 |
| 20260508164245 | 15 | 92 | 4.8 | 11.3 | 0.00 | 0.00 | 0.00 | 50 | 1028.8 |
| 20260508163743 | 15 | 73 | 9.7 | 12.9 | 0.00 | 0.00 | 0.00 | 50 | 1028.8 |
| 20260508163241 | 15 | 93 | 9.7 | 16.1 | 0.00 | 0.00 | 0.00 | 50 | 1028.8 |
| 20260508162736 | 16 | 79 | 11.3 | 12.9 | 0.00 | 0.00 | 0.00 | 49 | 1028.8 |
| 20260508162234 | 16 | 88 | 9.7 | 16.1 | 0.00 | 0.00 | 0.00 | 48 | 1028.9 |
| 20260508161730 | 16 | 88 | 11.3 | 17.7 | 0.00 | 0.00 | 0.00 | 48 | 1028.8 |
| 20260508161228 | 16 | 81 | 14.5 | 17.7 | 0.00 | 0.00 | 0.00 | 48 | 1028.6 |
| 20260508160726 | 16 | 84 | 9.7 | 20.9 | 0.00 | 0.00 | 0.00 | 47 | 1028.7 |
| 20260508160224 | 16 | 78 | 11.3 | 20.9 | 0.00 | 0.00 | 0.00 | 46 | 1028.7 |
| 20260508155720 | 16 | 86 | 8.0 | 17.7 | 0.00 | 0.00 | 0.00 | 46 | 1028.7 |
| 20260508155217 | 17 | 91 | 8.0 | 20.9 | 0.00 | 0.00 | 0.00 | 45 | 1028.9 |
| 20260508154714 | 17 | 80 | 12.9 | 20.9 | 0.00 | 0.00 | 0.00 | 45 | 1028.8 |
| 20260508154211 | 17 | 72 | 9.7 | 16.1 | 0.00 | 0.00 | 0.00 | 45 | 1029.0 |
| 20260508153708 | 17 | 73 | 11.3 | 14.5 | 0.00 | 0.00 | 0.00 | 45 | 1029.1 |
| 20260508153205 | 17 | 86 | 16.1 | 17.7 | 0.00 | 0.00 | 0.00 | 46 | 1028.7 |
| 20260508152701 | 17 | 70 | 9.7 | 14.5 | 0.00 | 0.00 | 0.00 | 46 | 1028.9 |
| 20260508152157 | 17 | 66 | 11.3 | 19.3 | 0.00 | 0.00 | 0.00 | 46 | 1028.9 |
| 20260508151654 | 16 | 64 | 14.5 | 17.7 | 0.00 | 0.00 | 0.00 | 46 | 1028.7 |
| 20260508151151 | 16 | 73 | 12.9 | 22.5 | 0.00 | 0.00 | 0.00 | 46 | 1028.9 |
| 20260508150647 | 16 | 56 | 8.0 | 14.5 | 0.00 | 0.00 | 0.00 | 47 | 1029.1 |
| 20260508150144 | 16 | 76 | 8.0 | 11.3 | 0.00 | 0.00 | 0.00 | 47 | 1028.9 |
| 20260508145640 | 16 | 66 | 6.4 | 11.3 | 0.00 | 0.00 | 0.00 | 47 | 1028.9 |
| 20260508145136 | 17 | 85 | 9.7 | 16.1 | 0.00 | 0.00 | 0.00 | 46 | 1029.1 |
| 20260508144634 | 17 | 88 | 12.9 | 16.1 | 0.00 | 0.00 | 0.00 | 46 | 1028.9 |
| 20260508144132 | 16 | 62 | 9.7 | 17.7 | 0.00 | 0.00 | 0.00 | 47 | 1029.1 |
| 20260508143629 | 17 | 67 | 9.7 | 14.5 | 0.00 | 0.00 | 0.00 | 47 | 1029.1 |
| 20260508143125 | 17 | 77 | 11.3 | 14.5 | 0.00 | 0.00 | 0.00 | 47 | 1029.0 |
| 20260508142622 | 17 | 65 | 9.7 | 16.1 | 0.00 | 0.00 | 0.00 | 47 | 1029.1 |
| 20260508142119 | 17 | 79 | 12.9 | 14.5 | 0.00 | 0.00 | 0.00 | 47 | 1029.2 |
| 20260508141615 | 17 | 79 | 8.0 | 17.7 | 0.00 | 0.00 | 0.00 | 47 | 1029.1 |
| 20260508141113 | 17 | 92 | 11.3 | 14.5 | 0.00 | 0.00 | 0.00 | 48 | 1029.1 |
| 20260508140610 | 17 | 78 | 8.0 | 12.9 | 0.00 | 0.00 | 0.00 | 49 | 1029.2 |
| 20260508140107 | 17 | 74 | 11.3 | 12.9 | 0.00 | 0.00 | 0.00 | 48 | 1029.2 |
| 20260508135602 | 17 | 81 | 11.3 | 14.5 | 0.00 | 0.00 | 0.00 | 49 | 1029.1 |
| 20260508135059 | 16 | 85 | 8.0 | 14.5 | 0.00 | 0.00 | 0.00 | 50 | 1029.3 |
| 20260508134555 | 16 | 76 | 8.0 | 14.5 | 0.00 | 0.00 | 0.00 | 51 | 1029.1 |
| 20260508134052 | 16 | 82 | 8.0 | 11.3 | 0.00 | 0.00 | 0.00 | 52 | 1029.3 |
| 20260508133549 | 16 | 88 | 8.0 | 12.9 | 0.00 | 0.00 | 0.00 | 51 | 1029.2 |
| 20260508133047 | 16 | 80 | 9.7 | 12.9 | 0.00 | 0.00 | 0.00 | 52 | 1029.2 |
| 20260508132544 | 16 | 93 | 9.7 | 14.5 | 0.00 | 0.00 | 0.00 | 52 | 1029.3 |
| 20260508132041 | 16 | 83 | 9.7 | 11.3 | 0.00 | 0.00 | 0.00 | 53 | 1029.0 |
| 20260508131536 | 16 | 77 | 8.0 | 12.9 | 0.00 | 0.00 | 0.00 | 53 | 1029.2 |
| 20260508131033 | 16 | 81 | 6.4 | 9.7 | 0.00 | 0.00 | 0.00 | 53 | 1029.1 |
| 20260508130530 | 17 | 81 | 8.0 | 9.7 | 0.00 | 0.00 | 0.00 | 52 | 1029.1 |
| 20260508130026 | 17 | 88 | 9.7 | 12.9 | 0.00 | 0.00 | 0.00 | 51 | 1029.2 |
| 20260508125522 | 17 | 86 | 9.7 | 12.9 | 0.00 | 0.00 | 0.00 | 51 | 1029.1 |
| 20260508125020 | 17 | 91 | 6.4 | 11.3 | 0.00 | 0.00 | 0.00 | 52 | 1029.1 |
| 20260508124518 | 17 | 89 | 6.4 | 11.3 | 0.00 | 0.00 | 0.00 | 52 | 1029.1 |
| 20260508124015 | 17 | 99 | 11.3 | 11.3 | 0.00 | 0.00 | 0.00 | 52 | 1029.1 |
| 20260508123514 | 17 | 94 | 8.0 | 9.7 | 0.00 | 0.00 | 0.00 | 52 | 1028.8 |
| 20260508123010 | 17 | 92 | 8.0 | 12.9 | 0.00 | 0.00 | 0.00 | 52 | 1029.0 |
| 20260508122507 | 17 | 87 | 6.4 | 9.7 | 0.00 | 0.00 | 0.00 | 52 | 1029.0 |
| 20260508122004 | 17 | 89 | 11.3 | 11.3 | 0.00 | 0.00 | 0.00 | 52 | 1029.0 |
| 20260508121502 | 17 | 85 | 9.7 | 11.3 | 0.00 | 0.00 | 0.00 | 53 | 1028.8 |
| 20260508120959 | 17 | 91 | 6.4 | 9.7 | 0.00 | 0.00 | 0.00 | 52 | 1028.9 |
| 20260508120457 | 17 | 100 | 8.0 | 12.9 | 0.00 | 0.00 | 0.00 | 52 | 1029.1 |
| 20260508115955 | 17 | 101 | 8.0 | 11.3 | 0.00 | 0.00 | 0.00 | 51 | 1029.0 |
| 20260508115452 | 17 | 93 | 11.3 | 12.9 | 0.00 | 0.00 | 0.00 | 50 | 1029.0 |
| 20260508114948 | 17 | 85 | 11.3 | 12.9 | 0.00 | 0.00 | 0.00 | 51 | 1029.0 |
| 20260508114446 | 17 | 95 | 9.7 | 11.3 | 0.00 | 0.00 | 0.00 | 51 | 1029.0 |
| 20260508113942 | 17 | 84 | 4.8 | 11.3 | 0.00 | 0.00 | 0.00 | 51 | 1029.0 |
| 20260508113440 | 17 | 100 | 6.4 | 11.3 | 0.00 | 0.00 | 0.00 | 52 | 1028.9 |
| 20260508112937 | 17 | 96 | 8.0 | 11.3 | 0.00 | 0.00 | 0.00 | 52 | 1029.0 |
| 20260508112433 | 17 | 109 | 8.0 | 9.7 | 0.00 | 0.00 | 0.00 | 51 | 1028.9 |
| 20260508111930 | 18 | 103 | 6.4 | 8.0 | 0.00 | 0.00 | 0.00 | 51 | 1029.0 |
| 20260508111427 | 18 | 105 | 6.4 | 8.0 | 0.00 | 0.00 | 0.00 | 50 | 1029.0 |
| 20260508110924 | 18 | 101 | 6.4 | 9.7 | 0.00 | 0.00 | 0.00 | 50 | 1028.9 |
| 20260508110422 | 18 | 101 | 6.4 | 12.9 | 0.00 | 0.00 | 0.00 | 50 | 1029.0 |
| 20260508105921 | 18 | 104 | 8.0 | 11.3 | 0.00 | 0.00 | 0.00 | 50 | 1029.0 |
| 20260508105418 | 18 | 100 | 6.4 | 11.3 | 0.00 | 0.00 | 0.00 | 50 | 1029.0 |
| 20260508104915 | 18 | 92 | 9.7 | 11.3 | 0.00 | 0.00 | 0.00 | 50 | 1029.1 |
| 20260508104413 | 18 | 103 | 8.0 | 12.9 | 0.00 | 0.00 | 0.00 | 49 | 1028.9 |
| 20260508103909 | 18 | 99 | 6.4 | 9.7 | 0.00 | 0.00 | 0.00 | 49 | 1028.9 |
| 20260508103406 | 18 | 104 | 9.7 | 12.9 | 0.00 | 0.00 | 0.00 | 49 | 1028.9 |
| 20260508102904 | 18 | 108 | 6.4 | 12.9 | 0.00 | 0.00 | 0.00 | 48 | 1028.8 |
| 20260508102402 | 18 | 94 | 6.4 | 11.3 | 0.00 | 0.00 | 0.00 | 48 | 1028.8 |
| 20260508101859 | 19 | 94 | 9.7 | 12.9 | 0.00 | 0.00 | 0.00 | 48 | 1028.8 |
| 20260508101356 | 19 | 83 | 8.0 | 16.1 | 0.00 | 0.00 | 0.00 | 47 | 1028.7 |
| 20260508100853 | 19 | 96 | 9.7 | 12.9 | 0.00 | 0.00 | 0.00 | 47 | 1028.8 |
| 20260508100352 | 20 | 91 | 6.4 | 11.3 | 0.00 | 0.00 | 0.00 | 46 | 1028.9 |
| 20260508095847 | 20 | 88 | 8.0 | 14.5 | 0.00 | 0.00 | 0.00 | 46 | 1028.6 |
| 20260508095345 | 20 | 97 | 8.0 | 12.9 | 0.00 | 0.00 | 0.00 | 46 | 1028.6 |
| 20260508094842 | 20 | 81 | 9.7 | 16.1 | 0.00 | 0.00 | 0.00 | 45 | 1028.6 |
| 20260508094339 | 20 | 95 | 4.8 | 12.9 | 0.00 | 0.00 | 0.00 | 46 | 1028.5 |
| 20260508093836 | 20 | 101 | 6.4 | 14.5 | 0.00 | 0.00 | 0.00 | 45 | 1028.7 |
| 20260508093333 | 21 | 85 | 8.0 | 12.9 | 0.00 | 0.00 | 0.00 | 45 | 1028.7 |
| 20260508092831 | 21 | 82 | 8.0 | 14.5 | 0.00 | 0.00 | 0.00 | 44 | 1028.6 |
| 20260508092328 | 21 | 86 | 9.7 | 14.5 | 0.00 | 0.00 | 0.00 | 43 | 1028.7 |
| 20260508091826 | 21 | 91 | 14.5 | 16.1 | 0.00 | 0.00 | 0.00 | 42 | 1028.4 |
| 20260508091322 | 21 | 81 | 12.9 | 24.1 | 0.00 | 0.00 | 0.00 | 41 | 1028.4 |
| 20260508090820 | 22 | 87 | 14.5 | 20.9 | 0.00 | 0.00 | 0.00 | 41 | 1028.5 |
| 20260508090319 | 22 | 86 | 11.3 | 20.9 | 0.00 | 0.00 | 0.00 | 41 | 1028.3 |
| 20260508085814 | 22 | 86 | 8.0 | 16.1 | 0.00 | 0.00 | 0.00 | 42 | 1028.3 |
| 20260508085311 | 22 | 96 | 14.5 | 17.7 | 0.00 | 0.00 | 0.00 | 41 | 1028.1 |
| 20260508084808 | 22 | 92 | 11.3 | 22.5 | 0.00 | 0.00 | 0.00 | 41 | 1028.2 |
| 20260508084305 | 22 | 73 | 8.0 | 16.1 | 0.00 | 0.00 | 0.00 | 41 | 1028.2 |
| 20260508083802 | 22 | 86 | 12.9 | 27.4 | 0.00 | 0.00 | 0.00 | 40 | 1028.2 |
| 20260508083259 | 22 | 91 | 20.9 | 24.1 | 0.00 | 0.00 | 0.00 | 40 | 1028.3 |
| 20260508082759 | 22 | 88 | 19.3 | 25.7 | 0.00 | 0.00 | 0.00 | 40 | 1028.3 |
| 20260508082257 | 23 | 51 | 14.5 | 16.1 | 0.00 | 0.00 | 0.00 | 41 | 1028.2 |
| 20260508081754 | 22 | 96 | 11.3 | 17.7 | 0.00 | 0.00 | 0.00 | 41 | 1028.1 |
| 20260508081251 | 22 | 78 | 16.1 | 27.4 | 0.00 | 0.00 | 0.00 | 40 | 1028.2 |
| 20260508080748 | 22 | 70 | 20.9 | 24.1 | 0.00 | 0.00 | 0.00 | 40 | 1028.3 |
| 20260508080246 | 23 | 85 | 20.9 | 25.7 | 0.00 | 0.00 | 0.00 | 40 | 1028.2 |
| 20260508075742 | 22 | 86 | 8.0 | 22.5 | 0.00 | 0.00 | 0.00 | 40 | 1028.1 |
| 20260508075239 | 23 | 86 | 12.9 | 22.5 | 0.00 | 0.00 | 0.00 | 39 | 1028.3 |
| 20260508074737 | 22 | 86 | 14.5 | 24.1 | 0.00 | 0.00 | 0.00 | 40 | 1028.3 |
| 20260508074234 | 22 | 75 | 9.7 | 27.4 | 0.00 | 0.00 | 0.00 | 40 | 1028.2 |
| 20260508073731 | 22 | 81 | 14.5 | 24.1 | 0.00 | 0.00 | 0.00 | 40 | 1028.3 |
| 20260508073229 | 23 | 89 | 14.5 | 24.1 | 0.00 | 0.00 | 0.00 | 40 | 1028.2 |
| 20260508072725 | 22 | 99 | 14.5 | 24.1 | 0.00 | 0.00 | 0.00 | 40 | 1028.2 |
| 20260508072222 | 23 | 95 | 12.9 | 24.1 | 0.00 | 0.00 | 0.00 | 40 | 1028.4 |
| 20260508071719 | 23 | 80 | 19.3 | 22.5 | 0.00 | 0.00 | 0.00 | 40 | 1028.2 |
| 20260508071217 | 23 | 84 | 16.1 | 25.7 | 0.00 | 0.00 | 0.00 | 40 | 1028.2 |
| 20260508070714 | 23 | 62 | 17.7 | 27.4 | 0.00 | 0.00 | 0.00 | 40 | 1028.4 |
| 20260508070213 | 23 | 49 | 25.7 | 30.6 | 0.00 | 0.00 | 0.00 | 39 | 1028.3 |
| 20260508065710 | 23 | 56 | 20.9 | 29.0 | 0.00 | 0.00 | 0.00 | 40 | 1028.3 |
| 20260508065208 | 22 | 109 | 17.7 | 29.0 | 0.00 | 0.00 | 0.00 | 40 | 1028.3 |
| 20260508064705 | 23 | 95 | 22.5 | 30.6 | 0.00 | 0.00 | 0.00 | 40 | 1028.3 |
| 20260508064203 | 23 | 84 | 20.9 | 22.5 | 0.00 | 0.00 | 0.00 | 41 | 1028.3 |
| 20260508063700 | 22 | 97 | 19.3 | 32.2 | 0.00 | 0.00 | 0.00 | 42 | 1028.3 |
| 20260508063158 | 22 | 98 | 8.0 | 27.4 | 0.00 | 0.00 | 0.00 | 41 | 1028.4 |
| 20260508062655 | 22 | 95 | 12.9 | 24.1 | 0.00 | 0.00 | 0.00 | 41 | 1028.6 |
| 20260508062152 | 23 | 70 | 14.5 | 25.7 | 0.00 | 0.00 | 0.00 | 42 | 1028.4 |
| 20260508061649 | 22 | 63 | 3.2 | 16.1 | 0.00 | 0.00 | 0.00 | 45 | 1028.4 |
| 20260508061147 | 23 | 100 | 9.7 | 12.9 | 0.00 | 0.00 | 0.00 | 44 | 1028.5 |
| 20260508060643 | 22 | 96 | 17.7 | 22.5 | 0.00 | 0.00 | 0.00 | 44 | 1028.5 |
| 20260508060141 | 22 | 95 | 12.9 | 25.7 | 0.00 | 0.00 | 0.00 | 44 | 1028.8 |
| 20260508055636 | 22 | 123 | 14.5 | 22.5 | 0.00 | 0.00 | 0.00 | 44 | 1028.6 |
| 20260508055133 | 22 | 86 | 8.0 | 17.7 | 0.00 | 0.00 | 0.00 | 43 | 1028.9 |
| 20260508054629 | 22 | 83 | 12.9 | 25.7 | 0.00 | 0.00 | 0.00 | 44 | 1028.9 |
| 20260508054127 | 22 | 91 | 12.9 | 20.9 | 0.00 | 0.00 | 0.00 | 44 | 1028.9 |
| 20260508053624 | 22 | 60 | 16.1 | 19.3 | 0.00 | 0.00 | 0.00 | 44 | 1029.1 |
| 20260508053122 | 22 | 38 | 24.1 | 24.1 | 0.00 | 0.00 | 0.00 | 43 | 1029.1 |
| 20260508052619 | 22 | 46 | 16.1 | 24.1 | 0.00 | 0.00 | 0.00 | 44 | 1029.2 |
| 20260508052116 | 22 | 67 | 6.4 | 20.9 | 0.00 | 0.00 | 0.00 | 44 | 1029.2 |
| 20260508051612 | 22 | 79 | 11.3 | 16.1 | 0.00 | 0.00 | 0.00 | 45 | 1029.3 |
| 20260508051107 | 22 | 74 | 8.0 | 22.5 | 0.00 | 0.00 | 0.00 | 43 | 1029.4 |
| 20260508050604 | 22 | 29 | 4.8 | 17.7 | 0.00 | 0.00 | 0.00 | 45 | 1029.4 |
| 20260508045557 | 22 | 41 | 19.3 | 24.1 | 0.00 | 0.00 | 0.00 | 45 | 1029.5 |
| 20260508045055 | 22 | 85 | 8.0 | 20.9 | 0.00 | 0.00 | 0.00 | 45 | 1029.6 |
| 20260508044552 | 21 | 93 | 19.3 | 29.0 | 0.00 | 0.00 | 0.00 | 46 | 1029.5 |
| 20260508044048 | 21 | 66 | 14.5 | 24.1 | 0.00 | 0.00 | 0.00 | 45 | 1029.5 |
| 20260508043545 | 21 | 68 | 11.3 | 20.9 | 0.00 | 0.00 | 0.00 | 47 | 1029.9 |
| 20260508043043 | 21 | 31 | 12.9 | 29.0 | 0.00 | 0.00 | 0.00 | 47 | 1030.0 |
| 20260508042539 | 21 | 58 | 20.9 | 27.4 | 0.00 | 0.00 | 0.00 | 46 | 1030.1 |
| 20260508042037 | 21 | 58 | 17.7 | 30.6 | 0.00 | 0.00 | 0.00 | 47 | 1030.2 |
| 20260508041533 | 21 | 48 | 22.5 | 24.1 | 0.00 | 0.00 | 0.00 | 49 | 1030.3 |
| 20260508041029 | 21 | 31 | 16.1 | 30.6 | 0.00 | 0.00 | 0.00 | 49 | 1030.5 |
| 20260508040526 | 21 | 46 | 17.7 | 32.2 | 0.00 | 0.00 | 0.00 | 48 | 1030.4 |
| 20260508040024 | 21 | 81 | 22.5 | 29.0 | 0.00 | 0.00 | 0.00 | 48 | 1030.5 |
| 20260508035520 | 21 | 43 | 17.7 | 27.4 | 0.00 | 0.00 | 0.00 | 49 | 1030.6 |
| 20260508035018 | 21 | 37 | 25.7 | 27.4 | 0.00 | 0.00 | 0.00 | 49 | 1030.7 |
| 20260508034515 | 21 | 86 | 16.1 | 27.4 | 0.00 | 0.00 | 0.00 | 48 | 1031.0 |
| 20260508034012 | 21 | 38 | 30.6 | 33.8 | 0.00 | 0.00 | 0.00 | 49 | 1030.8 |
| 20260508033509 | 20 | 58 | 22.5 | 32.2 | 0.00 | 0.00 | 0.00 | 48 | 1031.0 |
| 20260508033007 | 21 | 24 | 19.3 | 33.8 | 0.00 | 0.00 | 0.00 | 49 | 1031.2 |
| 20260508032504 | 20 | 40 | 20.9 | 30.6 | 0.00 | 0.00 | 0.00 | 50 | 1031.2 |
| 20260508032001 | 20 | 46 | 27.4 | 32.2 | 0.00 | 0.00 | 0.00 | 49 | 1031.4 |
| 20260508031459 | 20 | 32 | 24.1 | 32.2 | 0.00 | 0.00 | 0.00 | 50 | 1031.3 |
| 20260508030953 | 20 | 40 | 19.3 | 32.2 | 0.00 | 0.00 | 0.00 | 50 | 1031.4 |
| 20260508030451 | 20 | 34 | 17.7 | 24.1 | 0.00 | 0.00 | 0.00 | 52 | 1031.5 |
| 20260508025948 | 20 | 59 | 14.5 | 27.4 | 0.00 | 0.00 | 0.00 | 51 | 1031.4 |
| 20260508025444 | 20 | 80 | 16.1 | 27.4 | 0.00 | 0.00 | 0.00 | 51 | 1031.5 |
| 20260508024942 | 20 | 60 | 24.1 | 35.4 | 0.00 | 0.00 | 0.00 | 52 | 1031.7 |